Home   Weather   Gaziantep   Past weeks

Flag for Turkey Past Weather in Gaziantep, Turkey — Yesterday and Last 2 Weeks

Now
63 °F

Passing clouds.


Feels Like: 63 °F
Forecast: 36 / 65 °F
Wind: 3 mph from Northwest

Location: Gaziantep Airport

Current Time: Feb 27, 2017 at 12:26:54 pm

Latest Report: Feb 27, 2017 at 11:50 am


Visibility: N/A

Pressure: 30.12 "Hg (27.23 "Hg at 856m altitude)

Humidity: 24%

Dew Point: 25 °F

Location of GaziantepLocation

Past Weather in Gaziantep — Graph

°F

Gaziantep Temperature Yesterday

Maximum temperature yesterday: 64 °F (at 2:50 pm)
Minimum temperature yesterday: 28 °F (at 6:20 am)
Average temperature yesterday: 47 °F

High & Low Weather Summary for the Past Weeks

 TemperatureHumidityPressure
High64 °F (Feb 26, 2:50 pm)93% (Feb 25, 1:50 am)30.45 "Hg (Feb 25, 1:50 am)
Low16 °F (Feb 18, 6:50 am)14% (Feb 15, 2:50 pm)29.89 "Hg (Feb 15, 3:50 pm)
Average40 °F47%30.13 "Hg
* Reported Feb 12 10:20 am — Feb 27 10:50 am, Gaziantep, Weather by CustomWeather, © 2017

Note: Actual official high and low records may vary slightly from our data, if they occured in-between our weather recording intervals... More about our weather records

Advertising

Gaziantep Weather History for the Previous 24 Hours

Scroll right to see more
 ConditionsComfort  
Time TempWeatherWind HumidityBarometerVisibility
10:50 am
Mon, Feb 27
63 °FSunny.No wind30%30.12 "Hg10 mi
10:20 am59 °FSunny.1 mph34%30.12 "Hg10 mi
9:50 am55 °FSunny.3 mph41%30.12 "Hg10 mi
9:20 am52 °FSunny.2 mph50%30.12 "Hg10 mi
8:50 am45 °FSunny.2 mph57%30.12 "Hg10 mi
8:20 am36 °FSunny.2 mph70%30.12 "Hg10 mi
7:50 am32 °FSunny.2 mph75%30.12 "Hg10 mi
7:20 am30 °FSunny.2 mph86%30.12 "Hg10 mi
6:50 am30 °FClear.2 mph80%30.09 "Hg10 mi
6:20 am34 °FClear.2 mph75%30.12 "Hg10 mi
5:50 am32 °FClear.2 mph75%30.12 "Hg10 mi
5:20 am39 °FClear.2 mph65%30.09 "Hg10 mi
4:50 am34 °FClear.2 mph75%30.09 "Hg10 mi
4:20 am36 °FClear.2 mph70%30.09 "Hg10 mi
3:50 am36 °FClear.2 mph70%30.09 "Hg10 mi
3:20 am39 °FClear.2 mph61%30.09 "Hg10 mi
2:50 am39 °FClear.2 mph65%30.09 "Hg10 mi
2:20 am37 °FClear.2 mph65%30.09 "Hg10 mi
1:50 am37 °FClear.2 mph65%30.12 "Hg10 mi
1:20 am36 °FClear.2 mph65%30.12 "Hg10 mi
12:50 am36 °FClear.2 mph65%30.12 "Hg10 mi
12:20 am41 °FClear.2 mph61%30.12 "Hg10 mi
11:50 pm
Sun, Feb 26
41 °FClear.2 mph53%30.12 "Hg10 mi
11:20 pm41 °FClear.2 mph57%30.12 "Hg10 mi
10:50 pm43 °FClear.2 mph53%30.12 "Hg10 mi
10:20 pm45 °FClear.2 mph49%30.12 "Hg10 mi
9:50 pm46 °FClear.2 mph46%30.12 "Hg10 mi
9:20 pm48 °FClear.2 mph43%30.12 "Hg10 mi
8:50 pm48 °FClear.2 mph43%30.12 "Hg10 mi
8:20 pm50 °FClear.2 mph40%30.12 "Hg10 mi
7:50 pm54 °FClear.2 mph35%30.12 "Hg10 mi
7:20 pm55 °FClear.2 mph36%30.12 "Hg10 mi
6:50 pm57 °FClear.2 mph33%30.12 "Hg10 mi
6:20 pm59 °FSunny.2 mph31%30.12 "Hg10 mi
5:50 pm61 °FSunny.2 mph31%30.12 "Hg10 mi
5:20 pm63 °FSunny.2 mph27%30.12 "Hg10 mi
4:50 pm63 °FSunny.2 mph27%30.12 "Hg10 mi
4:20 pm63 °FSunny.2 mph27%30.12 "Hg10 mi
3:50 pm63 °FSunny.2 mph25%30.12 "Hg10 mi
3:20 pm64 °FSunny.2 mph26%30.12 "Hg10 mi
2:50 pm64 °FSunny.2 mph24%30.12 "Hg10 mi
2:20 pm63 °FSunny.2 mph25%30.12 "Hg10 mi
1:50 pm63 °FSunny.2 mph22%30.12 "Hg10 mi
1:20 pm63 °FSunny.2 mph24%30.15 "Hg10 mi
12:50 pm63 °FSunny.2 mph25%30.15 "Hg10 mi
12:20 pm61 °FSunny.2 mph29%30.18 "Hg10 mi
Weather by CustomWeather, © 2017

See weather overviewHow to use our weather pages